Regional Weather Roundup
Issued by NWS

Home | Current Version | Previous Version | Text Only | Print | Product List | Glossary On
Versions: 1 2 3 4 5 6 7 8 9 10 11 12 13 14 15 16 17 18 19 20 21 22 23 24 25 26 27 28 29 30 31 32 33 34 35 36 37 38 39 40 41 42 43 44 45 46 47 48 49 50
932
ASUS44 KOUN 280410
RWROK

WEATHER ROUNDUP FOR OKLAHOMA
NATIONAL WEATHER SERVICE NORMAN OK
1100 PM CDT TUE JUN 27 2017

NOTE: "FAIR" INDICATES FEW OR NO CLOUDS BELOW 12,000 FEET WITH NO
      SIGNIFICANT WEATHER AND/OR OBSTRUCTIONS TO VISIBILITY.

OKZ001>007-009>012-014-015-017-280500-
NORTHWEST OKLAHOMA AND THE PANHANDLE

CITY           SKY/WX    TMP DP  RH WIND       PRES   REMARKS
GAGE           CLOUDY    82  62  50 S24G33    29.86R
GUYMON         CLEAR     80  56  43 S20G29    29.83R
ENID/WOODRING  PTCLDY    79  64  61 S13       29.88R
$$

OKZ016-021>023-033>039-044-045-280500-
SOUTHWEST OKLAHOMA

CITY           SKY/WX    TMP DP  RH WIND       PRES   REMARKS
LAWTON/REGL    CLEAR     79  69  71 SE13      29.92R
LAWTON/FT SILL CLEAR     77  71  79 S15       29.91R
FREDERICK      CLEAR     80  68  66 SE17      29.88R
CLINTON        CLEAR     81  65  58 S20       29.91S
HOBART         CLEAR     81  67  62 S20       29.91R
ALTUS AFB      CLEAR     81  66  59 SE17      29.90R
$$

OKZ018>020-024>031-280500-
CENTRAL OKLAHOMA

CITY           SKY/WX    TMP DP  RH WIND       PRES   REMARKS
OKLAHOMA CITY  PTCLDY    78  66  66 S16G24    29.93R
OKC/WILEY POST CLEAR     81  68  64 S23G33    29.93R
STILLWATER     PTCLDY    81  64  56 S16G24    29.91R
GUTHRIE        CLEAR     81  67  62 S15G22    29.91R
$$

OKZ008-013-054>072-280500-
NORTHEAST OKLAHOMA

CITY           SKY/WX    TMP DP  RH WIND       PRES   REMARKS
TULSA          PTCLDY    80  68  66 SE12      29.92R
TULSA/JONES    CLEAR     81  65  58 S12       29.93R
PONCA CITY     PTCLDY    80  65  59 SE15      29.89R
BARTLESVILLE   CLEAR     77  64  64 S8        29.93R
MUSKOGEE       CLEAR     75  67  76 SE9       29.97R
$$

OKZ032-040>043-046>053-073>077-280500-
SOUTH CENTRAL/SOUTHEAST OKLAHOMA

CITY           SKY/WX    TMP DP  RH WIND       PRES   REMARKS
ARDMORE/DWNTWN CLEAR     75  66  73 S3        29.97R
MCALESTER      PTCLDY    78  66  66 SE5       29.97S
$$





USA.gov is the U.S. government's official web portal to all federal, state and local government web resources and services.